User: anonymous   Login
Location: Ariel
(45.9570°N, 122.5700°W)
Time: 12:54:54
(UTC-07:00)
Language:

SPROUT - Orbit

View from above orbital plane
View from above orbital plane
View from above satellite
View from above satellite

Ground track
Ground track

The orbit data is extracted from the following two-line orbital elements,

1 39770U 14029E   19112.51328651  .00000520  00000-0  63743-4 0  9991
2 39770  97.8786 216.2002 0007871 276.6055  83.4263 14.87264313266335
Epoch (UTC): 22 April 2019 12:19:07
Eccentricity: 0.0007871
inclination: 97.8786°
perigee height: 601 km
apogee height: 612 km
right ascension of ascending node: 216.2002°
argument of perigee: 276.6055°
revolutions per day: 14.87264313
mean anomaly at epoch: 83.4263°
orbit number at epoch: 26633

The dashed part of the orbit path shows where the satellite is in the earth's shadow,  

DLR